This demonstration page uses our WeatherBlox Daily Observations layout. Learn more.

Left ArrowRight Arrow

34.16533, -84.80231

Hourly Observations for April 29, 2016

Temp ( °F °C ) Dew Point ( °F °C ) Humidity (%) Winds ( mph kmh ) Pressure ( in mb ) Visibility ( mi km ) Precip ( " mm )
12:53 am 00:53 Clear 61 16.1 58 14.4 90 90 Calm 29.95 1014 10 16 0.00 0.00
1:53 am 01:53 Clear 60 15.6 58 14.4 93 93 Calm 29.94 1014 10 16 0.00 0.00
2:53 am 02:53 Clear 59 15 58 14.4 96 96 Calm 29.94 1014 10 16 0.00 0.00
3:53 am 03:53 Clear 57 13.9 57 13.9 100 100 Calm 29.95 1014 9 14 0.00 0.00
4:53 am 04:53 Clear 55 12.8 55 12.8 100 100 Calm 29.97 1015 10 16 0.00 0.00
5:47 am 05:47 Clear with Mist and Fog 55 13 55 13 100 100 Calm 30.03 1017 2 3 0.00 0.00
5:53 am 05:53 Clear with Mist and Fog 55 12.8 55 12.8 100 100 Calm 29.98 1015 2 3 0.00 0.00
5:55 am 05:55 Clear with Mist and Fog 55 12.8 55 12.8 100 100 Calm 30.03 1017 3 5 0.00 0.00
6:53 am 06:53 Sunny 55 12.8 54 12.2 96 96 Calm 30.00 1016 7 11 0.00 0.00
7:53 am 07:53 Sunny 58 14.4 57 13.9 97 97 Calm 30.02 1017 9 14 0.00 0.00
8:53 am 08:53 Sunny 65 18.3 60 15.6 84 84 Calm 30.01 1016 10 16 0.00 0.00
9:53 am 09:53 Sunny 70 21.1 58 14.4 66 66 VRB 5 7 30.00 1016 10 16 0.00 0.00
10:53 am 10:53 Sunny 77 25 55 12.8 47 47 VRB 6 9 30.01 1016 10 16 0.00 0.00
11:53 am 11:53 Sunny 81 27.2 47 8.3 30 30 N 10 17 30.00 1016 10 16 0.00 0.00
12:53 pm 12:53 Sunny 83 28.3 45 7.2 26 26 Calm 29.99 1016 10 16 0.00 0.00
1:53 pm 13:53 Sunny 84 28.9 43 6.1 24 24 Calm 29.96 1015 10 16 0.00 0.00
2:53 pm 14:53 Sunny 86 30 42 5.6 21 21 VRB 3 6 29.94 1014 10 16 0.00 0.00
3:53 pm 15:53 Sunny 84 28.9 41 5 22 22 Calm 29.93 1013 10 16 0.00 0.00
4:53 pm 16:53 Sunny 84 28.9 45 7.2 25 25 Calm 29.93 1013 10 16 0.00 0.00
5:53 pm 17:53 Sunny 83 28.3 52 11.1 34 34 Calm 29.93 1014 10 16 0.00 0.00
6:53 pm 18:53 Sunny 77 25 60 15.6 56 56 Calm 29.93 1014 10 16 0.00 0.00
7:53 pm 19:53 Sunny 71 21.7 59 15 66 66 Calm 29.93 1014 10 16 0.00 0.00
8:53 pm 20:53 Clear 70 21.1 57 13.9 64 64 Calm 29.96 1014 10 16 0.00 0.00
9:53 pm 21:53 Clear 69 20.6 56 13.3 63 63 Calm 29.97 1015 10 16 0.00 0.00
10:53 pm 22:53 Clear 68 20 57 13.9 68 68 Calm 29.98 1015 10 16 0.00 0.00
11:53 pm 23:53 Clear 69 20.6 57 13.9 66 66 VRB 5 7 29.98 1015 10 16 0.00 0.00

Powered by AerisWeather